Regional Weather Roundup
Issued by NWS

Home | Current Version | Previous Version | Graphics & Text | Print | Product List | Glossary On
Versions: 1 2 3 4 5 6 7 8 9 10 11 12 13 14 15 16 17 18 19 20 21 22 23 24 25 26 27 28 29 30 31 32 33 34 35 36 37 38 39 40 41 42 43 44 45 46 47 48 49 50
000
ASUS45 KBOI 292310
RWRID
WEATHER ROUNDUP FOR IDAHO
NATIONAL WEATHER SERVICE BOISE ID
500 PM MDT TUE JUL 29 2014

NOTE: "FAIR" INDICATES FEW OR NO CLOUDS BELOW 12000 FEET
WITH NO SIGNIFICANT WEATHER AND/OR OBSTRUCTIONS TO VISIBILITY

IDZ012-014-300000-
SOUTHWEST IDAHO


CITY           SKY/WX    TMP DP  RH WIND       PRES   REMARKS
BOISE          PTSUNNY   97  48  18 W15       30.00S HX  93
CALDWELL       PTSUNNY   97  54  23 SW12      30.00F HX  94
MOUNTAIN HOME  PTSUNNY   95  48  20 SW9       30.02F HX  91
$$

IDZ016-017-300000-
SOUTHCENTRAL IDAHO


CITY           SKY/WX    TMP DP  RH WIND       PRES   REMARKS
BURLEY         CLOUDY    81  52  36 E7        30.12F
JEROME         MOSUNNY   88  52  29 E8G17     30.11F
TWIN FALLS     SUNNY     90  51  26 NE12      30.12F
$$

IDZ019>023-300000-
SOUTHEAST IDAHO


CITY           SKY/WX    TMP DP  RH WIND       PRES   REMARKS
IDAHO FALLS    PTSUNNY   74  58  57 NE5       30.21F
POCATELLO      SUNNY     78  58  49 E6        30.17F
REXBURG        CLOUDY    74  59  59 CALM      30.22F
$$

IDZ006-010-011-018-031-032-300000-
CENTRAL IDAHO MOUNTAINS


CITY           SKY/WX    TMP DP  RH WIND       PRES   REMARKS
MCCALL         MOSUNNY   88  39  17 VRB7      30.17F
HAILEY         PTSUNNY   82  48  30 CALM      30.22F
STANLEY          N/A     77  38  24 VRB3      30.31F
SALMON         PTSUNNY   88  43  20 SE16G24   30.07R
CHALLIS        CLOUDY    86  40  19 NW5       30.17F
$$

IDZ002-004-006-007-026-300000-
NORTHERN IDAHO


CITY           SKY/WX    TMP DP  RH WIND       PRES   REMARKS
LEWISTON       LGT RAIN 105  35   9 NW8       29.93F HX  99
LOWELL           N/A     99  56  23 CALM      29.92F HX  97
COEUR D`ALENE  SUNNY     99  37  12 S5        30.00F HX  93
MULLAN PASS    MOSUNNY   80  37  21 CALM      30.30F
$$


USA.gov is the U.S. government's official web portal to all federal, state and local government web resources and services.